Theta_e
325 325 325 325 324 324 324 324 324 324 324 323 323 323 323 323 323 323 323 323 323 323 323 324 325 326 322 308 308 341 366 367 354 350 339 336 326 324 319 319 326 328 327 330 329 328 332
326 326 326 326 325 325 324 324 324 324 324 323 323 323 322 322 322 323 322 322 322 322 323 324 325 326 314 303 316 355 361 358 350 340 334 323 319 325 321 319 321 328 327 326 328 330 332
326 325 326 325 324 324 324 324 324 324 323 323 323 323 322 322 322 322 322 321 321 321 322 324 325 325 311 309 339 358 358 352 350 341 324 326 320 316 319 317 326 326 322 325 328 331 329
325 324 324 323 323 323 323 323 323 323 323 323 323 322 322 322 322 321 320 319 319 322 325 324 326 322 308 315 331 322 320 317 344 348 336 326 322 318 319 322 320 320 321 316 324 328 328
324 323 323 323 323 322 322 322 322 322 322 322 322 322 321 321 320 319 317 318 323 328 326 328 320 312 309 320 313 318 319 315 317 326 329 326 322 317 318 315 314 316 309 311 317 327 326
323 323 322 322 322 322 321 321 321 322 322 322 321 321 320 320 319 317 316 318 324 326 327 326 321 312 313 311 315 317 318 316 313 313 315 314 315 314 313 314 306 306 307 310 312 323 325
322 322 320 320 322 321 321 319 319 320 321 321 321 320 319 319 318 315 316 316 316 313 315 313 311 310 312 318 318 317 315 315 313 312 307 311 309 309 313 312 310 310 309 309 313 325 321
321 321 321 320 321 321 320 320 319 320 319 321 320 319 319 318 316 315 316 316 314 315 309 314 314 313 315 316 311 314 314 311 309 306 308 309 308 312 311 310 310 309 309 310 315 324 322
322 322 322 321 319 320 320 320 319 319 319 319 319 319 317 315 315 315 315 316 319 317 308 309 311 311 313 315 310 311 311 309 307 305 306 307 311 310 310 308 307 308 307 308 310 321 321
322 321 321 320 320 319 320 319 319 319 318 318 318 318 316 313 312 313 312 318 318 316 303 304 308 311 313 313 309 316 312 311 307 304 306 307 309 308 308 308 308 305 313 313 313 315 310
320 320 319 319 319 319 319 318 319 319 318 318 317 316 315 313 313 312 312 317 318 311 294 306 308 316 314 309 309 311 313 311 306 305 307 305 306 307 307 308 309 307 321 320 318 315 313
318 317 317 317 317 318 317 317 317 318 317 317 315 315 314 312 312 315 317 317 312 300 291 304 307 306 308 309 309 309 310 311 309 306 305 307 308 308 309 308 309 317 317 316 315 315 308
315 315 315 314 315 316 316 317 317 317 316 315 314 313 312 315 314 316 318 312 299 293 303 302 302 303 303 305 306 307 306 306 304 300 301 304 305 307 308 306 312 315 310 303 303 307 304
315 315 315 314 314 315 316 317 317 317 315 315 312 310 311 314 316 317 312 307 292 297 302 305 302 303 302 304 304 304 305 304 303 303 300 299 297 304 308 307 306 309 308 302 295 297 300
317 317 316 315 314 315 316 317 317 316 315 314 310 315 315 318 317 316 308 297 295 299 303 302 303 302 303 304 304 303 304 304 306 305 301 299 299 304 305 307 310 304 306 308 303 306 303
318 317 316 316 315 316 317 317 316 316 315 313 312 314 316 319 318 310 305 295 298 303 305 304 299 302 300 303 303 304 302 305 304 305 307 304 300 303 304 307 305 307 309 302 305 297 296
318 317 318 317 317 317 318 317 316 315 314 311 313 314 318 320 315 309 300 299 302 307 307 305 302 302 302 301 302 303 303 306 306 303 305 304 302 303 305 304 304 304 304 303 305 305 299
318 316 316 318 318 318 317 316 315 313 311 312 310 310 319 319 310 305 306 304 303 309 309 307 306 306 304 303 302 302 304 307 311 307 302 305 303 301 303 305 305 305 305 307 302 301 305
318 318 318 318 318 318 317 316 315 313 311 312 309 311 321 317 307 307 310 310 309 310 311 307 305 305 305 304 301 303 305 310 315 312 306 303 301 298 300 302 303 303 304 304 304 305 305
318 318 318 318 318 318 318 316 314 313 312 314 312 311 317 314 311 309 308 308 308 314 311 311 310 310 307 305 305 303 306 311 315 315 319 308 300 302 299 302 304 303 303 305 305 303 304
317 316 317 318 318 318 317 316 315 314 312 315 313 309 311 309 311 311 310 308 308 308 313 314 311 311 309 301 302 303 310 313 315 318 311 306 303 300 301 301 305 306 305 303 303 304 303
316 316 316 317 317 318 317 316 316 314 311 316 311 310 313 311 309 310 305 308 308 309 310 310 309 311 311 309 309 306 309 311 311 315 314 311 308 305 304 306 311 309 311 308 311 313 313
317 315 314 315 315 316 316 316 316 314 313 313 313 314 313 304 309 309 309 308 309 310 312 313 311 311 310 311 314 315 315 314 312 311 311 311 310 308 302 305 306 305 312 313 314 316 315
317 315 314 315 314 315 316 317 317 316 315 313 313 312 310 304 308 309 308 307 307 308 305 310 313 312 316 319 318 313 312 313 313 313 312 310 309 308 306 304 296 307 317 317 315 317 319
316 315 314 314 313 313 314 316 317 317 315 316 315 313 310 303 306 305 306 306 307 309 308 311 313 318 319 316 311 308 308 309 311 312 311 311 311 306 304 302 304 309 313 314 314 314 320
316 316 314 314 312 312 313 314 317 317 315 317 315 316 313 306 305 307 307 306 305 306 308 310 316 318 317 312 309 302 301 304 304 309 313 312 311 308 304 301 299 309 315 318 318 309 322
315 316 313 313 312 312 312 313 314 316 315 317 315 317 313 307 310 309 306 305 309 308 305 307 310 311 315 310 306 304 301 308 303 304 307 308 310 306 305 303 306 311 317 320 309 310 323
315 315 313 312 312 312 312 312 313 315 316 316 314 318 313 309 309 312 312 308 309 309 304 307 307 311 311 308 307 309 306 308 307 308 308 308 306 306 307 305 301 318 318 313 316 323 324
315 315 313 312 311 311 311 312 312 313 315 317 313 317 317 309 309 315 316 317 315 314 310 310 308 307 311 311 310 311 310 310 308 304 312 306 310 309 309 309 315 320 319 322 321 322 323
Wind_Speed
11 11 11 11 10 11 11 12 12 12 13 15 16 16 17 18 18 19 19 19 19 19 18 16 13 12 3 3 6 7 12 17 11 10 8 6 2 2 5 2 2 5 3 2 2 2 3
10 11 11 11 11 11 11 12 13 13 14 15 16 16 18 19 20 20 20 20 20 18 18 14 10 9 2 4 2 4 12 14 9 8 7 5 3 3 7 2 4 3 6 3 1 7 9
10 11 11 12 12 12 12 13 13 13 14 15 16 17 18 19 21 22 23 22 21 19 15 11 6 3 2 10 2 7 10 6 3 7 4 6 2 4 9 9 3 5 1 3 4 4 3
10 12 12 12 13 13 13 13 13 13 14 15 16 18 19 20 22 23 23 22 20 13 8 5 4 2 6 1 4 1 1 3 6 7 5 8 1 4 4 7 4 3 2 4 2 4 4
11 11 12 13 14 14 13 14 14 14 14 15 17 18 20 21 23 24 23 20 6 6 9 10 3 1 4 7 4 9 10 6 4 4 4 7 0 2 2 4 2 3 8 9 4 4 4
11 11 13 15 15 15 15 16 17 15 15 16 18 19 20 22 24 23 23 5 3 3 4 3 1 3 5 4 1 4 6 7 3 7 4 4 4 4 3 2 4 9 9 6 7 3 5
11 12 14 15 14 15 15 18 18 19 18 17 18 20 21 22 24 24 9 2 2 2 1 5 1 3 5 7 2 3 4 7 4 4 7 5 6 10 5 2 2 5 8 12 10 2 3
10 12 12 15 13 14 15 15 16 17 19 18 19 20 21 23 24 22 3 4 6 3 9 6 10 10 7 3 4 3 6 8 6 10 3 6 15 6 4 5 4 4 9 11 4 2 3
10 11 11 12 16 13 14 15 15 16 17 18 19 20 23 26 28 3 4 8 4 4 4 5 4 4 3 10 5 5 10 6 5 8 8 14 5 5 3 3 5 6 7 10 10 1 3
12 13 13 15 15 14 14 15 16 16 17 18 18 19 21 30 1 4 2 3 7 5 3 1 1 0 4 3 5 5 6 4 4 13 6 8 4 7 3 5 4 8 6 10 2 3 4
13 13 14 15 15 16 15 16 17 17 17 18 19 18 17 9 8 4 3 6 0 4 2 8 3 3 4 4 1 3 1 2 7 6 7 5 4 9 12 8 4 2 3 5 4 3 3
14 15 15 15 16 16 16 16 18 18 19 21 21 20 14 1 3 6 9 8 4 3 2 3 2 1 2 3 1 3 4 3 2 4 1 6 1 2 3 4 2 9 2 3 2 2 4
15 15 15 16 16 16 16 17 19 18 20 22 23 22 6 3 2 7 8 2 2 4 2 5 3 5 3 3 4 4 8 9 7 6 9 4 10 4 4 7 3 5 3 3 2 1 4
15 15 14 15 17 16 16 16 18 19 23 24 24 19 4 4 4 8 3 2 3 2 3 3 4 3 1 3 1 2 7 11 3 3 3 9 7 10 9 14 7 8 6 4 4 4 4
16 17 16 13 14 15 16 17 17 19 24 23 18 1 1 3 3 4 1 1 2 0 3 8 8 2 3 2 1 4 7 10 11 11 7 6 6 1 5 3 8 6 7 3 2 2 4
14 15 14 11 12 12 15 17 19 20 22 21 4 3 5 6 4 2 2 1 1 3 4 1 3 4 4 4 2 2 4 3 4 12 4 5 4 0 2 4 5 4 10 5 1 4 7
13 14 12 12 13 13 13 16 18 19 24 13 2 2 5 2 3 2 2 0 3 6 5 2 1 3 2 3 3 1 3 2 2 2 8 7 5 3 3 5 8 5 4 3 1 2 4
12 14 14 15 15 13 12 16 18 19 23 6 3 2 3 4 1 1 2 1 3 4 0 4 3 5 3 3 3 1 1 2 1 5 7 6 3 9 13 1 1 0 2 6 5 6 1
12 12 15 16 16 15 15 16 17 17 13 4 3 2 1 3 2 2 1 3 3 3 4 2 3 4 0 4 3 2 2 1 3 2 6 8 6 4 4 4 3 5 5 3 5 1 6
12 13 13 14 15 16 16 16 18 17 15 1 1 1 2 3 2 2 2 2 5 2 2 5 5 2 5 5 4 3 2 1 4 2 2 7 4 5 7 1 1 7 7 6 4 4 7
12 13 15 14 15 16 16 17 18 18 13 1 4 3 2 2 3 2 1 3 4 6 2 6 1 9 6 3 1 2 2 5 1 3 2 4 1 2 2 4 4 5 7 8 6 2 5
10 11 14 14 14 15 16 19 17 20 12 3 3 2 2 1 3 2 2 2 3 4 3 4 7 13 7 3 3 4 7 2 3 2 1 2 3 2 2 4 2 5 5 7 3 2 4
10 10 14 14 14 15 15 16 16 19 10 4 2 1 2 3 3 1 1 2 1 7 2 5 10 8 5 4 10 14 10 11 8 6 4 3 3 1 2 3 5 5 6 6 4 4 3
10 9 12 13 14 14 14 14 14 14 10 2 2 2 2 1 2 1 2 5 6 5 6 9 8 4 6 15 9 4 6 3 2 3 5 2 1 2 3 4 5 4 1 2 5 5 9
9 8 11 11 12 13 13 14 13 12 12 3 2 2 3 2 3 6 1 3 8 7 5 7 7 4 11 7 3 4 3 3 3 3 5 3 2 2 4 4 4 3 7 6 8 6 14
8 8 9 10 11 12 12 12 12 12 11 1 1 2 1 3 1 3 4 5 4 4 5 5 7 9 4 1 1 3 4 1 3 3 2 5 3 4 3 9 10 3 7 5 3 7 12
7 9 8 8 9 10 11 11 11 11 10 3 1 1 2 3 3 3 3 2 2 2 5 6 7 5 3 2 5 4 3 1 4 4 3 0 1 4 4 5 4 2 4 7 6 5 4
6 7 7 8 8 9 10 10 10 11 11 5 2 2 2 2 8 8 10 9 5 4 3 5 5 2 3 3 3 3 4 3 3 1 2 4 4 3 1 3 5 4 7 4 4 5 5
7 7 6 6 8 9 10 10 9 9 10 7 2 1 1 4 7 8 12 14 17 12 6 3 4 4 3 3 1 1 3 2 1 3 2 4 3 1 5 3 2 2 4 6 5 6 3
Wind_Direction
17 13 9 5 0 356 352 350 346 342 340 336 336 330 326 323 320 316 313 308 305 303 304 306 312 317 287 295 260 18 130 152 144 147 152 158 168 261 301 355 194 245 269 200 216 233 206
5 359 356 355 353 348 344 343 339 339 337 333 332 328 325 321 319 316 312 308 303 300 300 299 302 306 248 269 7 125 142 156 172 172 166 169 197 245 290 304 284 260 288 299 210 155 152
1 1 358 354 350 345 342 339 336 335 333 331 329 328 325 323 320 317 314 312 306 300 293 282 278 265 211 254 89 148 151 179 202 198 204 212 211 280 336 314 297 277 268 283 67 136 86
3 359 359 357 351 346 342 339 336 334 331 328 326 326 326 323 321 319 319 315 310 299 277 217 194 222 258 278 139 181 213 250 223 235 274 307 226 291 253 309 306 20 201 345 111 168 106
4 359 358 356 353 349 344 342 340 336 330 327 328 327 326 324 322 323 325 321 335 65 111 141 144 248 257 144 219 223 200 227 167 214 255 291 60 251 245 265 360 29 324 321 332 195 132
1 355 358 352 351 348 347 349 347 339 332 330 328 327 327 327 324 326 325 287 76 114 120 197 99 262 236 170 236 171 193 199 171 127 161 186 209 231 190 303 320 313 316 308 288 131 168
358 354 353 351 347 347 347 352 348 344 337 332 328 329 328 327 326 328 336 249 303 173 170 238 45 292 305 314 224 186 171 168 149 191 200 181 213 222 234 213 302 279 279 292 300 146 189
347 347 345 346 341 343 343 341 342 338 335 330 330 329 329 327 324 320 251 71 82 341 304 243 259 262 268 333 314 208 165 171 181 215 164 202 233 196 144 155 258 253 290 312 324 22 262
337 336 335 334 343 337 338 336 332 331 330 328 328 327 334 329 320 340 349 124 31 187 254 292 208 220 217 184 227 229 184 158 162 193 198 225 243 159 208 183 270 281 292 320 313 42 102
353 356 350 347 341 338 337 334 331 329 327 324 323 331 337 330 272 341 268 104 331 199 310 303 157 141 144 195 215 200 198 162 163 204 173 248 194 204 191 259 229 290 336 310 337 267 331
352 348 346 344 341 342 337 332 329 326 325 323 327 332 330 339 313 273 49 326 317 214 178 353 89 108 130 220 20 130 145 119 179 163 196 205 198 194 221 245 194 360 31 67 87 101 275
348 345 343 342 341 335 331 329 329 325 325 327 326 326 331 168 238 265 316 319 194 252 234 45 84 48 176 214 119 114 158 67 71 136 236 249 320 243 198 170 238 167 128 74 89 339 286
343 342 342 340 337 334 328 328 329 324 327 327 322 318 296 239 264 321 306 244 212 231 348 20 353 337 274 209 199 165 168 178 187 204 226 247 242 216 184 232 129 184 196 289 252 189 274
348 342 337 339 341 330 327 325 326 328 332 327 318 317 166 224 278 329 294 179 218 31 338 345 324 302 223 172 149 142 168 188 187 150 144 211 229 195 180 215 216 197 231 233 265 261 313
347 351 344 341 337 330 328 328 330 334 334 325 316 346 201 305 250 194 188 161 20 212 321 329 313 17 69 125 203 179 199 199 212 194 225 180 247 216 211 153 198 152 208 351 206 123 261
354 354 5 354 335 329 329 334 335 331 328 332 334 329 14 354 149 219 80 103 252 238 304 306 346 0 340 353 224 173 184 149 218 202 227 192 265 56 87 172 72 243 137 176 191 258 270
354 352 346 339 327 328 335 343 340 336 335 331 330 99 8 28 268 48 63 25 274 241 241 257 265 289 302 307 321 115 151 170 254 89 201 171 234 183 233 200 177 154 181 77 156 262 281
350 350 350 347 350 345 359 349 344 342 337 20 331 86 21 304 68 28 76 303 318 307 207 273 278 254 252 297 280 230 181 234 170 165 173 194 209 239 249 138 344 260 225 201 223 183 249
351 347 351 358 357 356 356 352 346 344 6 323 47 322 23 287 80 61 4 299 269 316 325 319 282 230 195 279 293 254 250 130 45 171 174 172 211 224 214 169 148 208 178 173 107 141 185
356 359 359 358 357 356 350 351 346 342 353 2 339 97 55 61 36 17 1 354 324 315 285 311 300 344 321 255 224 289 280 270 342 6 55 151 155 239 250 281 121 169 170 176 216 198 154
358 0 359 357 356 354 352 351 346 342 347 283 7 58 15 37 73 17 309 344 327 357 360 360 118 358 292 298 259 233 294 301 133 96 78 251 208 221 306 257 194 140 161 172 209 152 237
348 359 359 357 358 357 358 1 351 348 346 71 40 4 4 38 301 296 356 56 352 339 304 15 5 337 354 61 25 305 357 333 1 328 200 177 145 168 57 8 297 138 129 139 149 159 264
331 355 354 356 2 1 2 2 359 359 1 48 28 53 295 29 354 279 84 1 13 347 224 281 340 322 311 4 313 283 259 279 278 309 326 321 136 146 138 3 326 191 188 178 145 197 192
329 352 351 354 359 0 358 356 4 11 22 17 41 285 341 34 306 318 326 318 301 322 291 300 306 282 358 322 295 231 219 194 181 298 283 205 88 101 116 136 229 57 0 295 261 206 210
327 347 348 350 356 359 359 357 1 8 10 17 358 342 9 310 285 289 315 303 309 298 256 272 289 333 323 308 303 292 201 207 168 63 21 301 170 161 222 187 338 235 211 205 205 226 215
313 335 345 345 350 353 357 358 354 358 9 356 21 337 359 326 220 300 326 319 317 323 284 268 317 322 306 314 226 216 223 225 210 196 157 92 89 262 165 227 224 213 160 151 166 262 195
304 320 337 333 343 345 351 355 353 351 2 344 320 326 293 289 287 213 236 319 308 291 291 293 339 325 349 246 211 222 203 305 238 220 202 167 44 247 202 265 290 5 112 156 207 357 11
278 294 320 323 329 334 341 348 351 345 353 355 308 255 329 271 286 253 255 249 241 228 255 353 295 165 279 237 243 182 221 175 205 300 277 232 202 200 166 230 242 118 121 236 29 351 10
255 274 299 310 315 323 330 337 343 338 344 344 278 198 198 235 265 288 265 255 243 250 267 231 318 320 290 288 261 301 229 191 222 204 157 237 288 344 235 23 348 290 293 295 297 282 291